Content
SEND FEEDBACK

Daily
Averages
Monthly
Summary
United States of America

WILMINGTON, NORTH CAROLINA


Home > North America > United States > North Carolina
Elevation: 72 feet     Latitude: 34 16N     Longitude: 077 54W

WEATHER
 
SELECT A DAY
Number of Records: 211,656;   Date Range: 1/1/95 - 9/29/14
 
SHARE

PRINT THIS DATA

[ ← Previous Day ]
WEATHER ALMANAC - JULY 2, 2014
[ Next Day → ]
[ °C ]   °F
Weather ElementAverageHighLow
Temperature83.8 °F91 °F (12:53 pm)77 °F (5:53 am)
Dewpoint74.7 °F77 °F (11:00 pm)71.1 °F (6:53 pm)
Humidity75.2 %94 % (5:53 am)55 % (2:53 pm)
Barometer29.99 in30.01 in (9:50 pm)29.96 in (1:53 am)
Wind Speed8.3 mph15 mph (1:53 pm)
Wind Gust23 mph (1:53 pm)
Weather ElementAverage
Visibility10 mi
Wind DirectionSSW (187.3 °)

Weather ElementTotal
Precipitation---
Cooling Degree Days19 (Base 65)
Growing Degree Days34 (Base 50)
Averaged from 30 records on July 2, 2014
WEATHER CONDITIONS BREAKOUT
WIND DIRECTION BREAKOUT
WEATHER BY HOUR - JULY 2, 2014
[ °C ]   °F
Local TimeTemperatureDewpointHumidityBarometerVisibilityWind DirectionWind SpeedGust SpeedPrecipitationEventsConditions
1:53 AM79.0 °F73.9 °F84 %29.96 in10.0 miSSW (200°)5.8 mphClear
2:53 AM79.0 °F73.9 °F84 %29.97 in10.0 miSSW (210°)4.6 mphClear
3:53 AM78.1 °F75.0 °F90 %29.97 in10.0 miSSW (210°)4.6 mphClear
4:53 AM78.1 °F75.0 °F90 %29.96 in10.0 miSSW (200°)3.5 mphClear
5:53 AM77.0 °F75.0 °F94 %29.97 in10.0 miSouth (190°)4.6 mphClear
6:53 AM79.0 °F75.9 °F90 %29.99 in10.0 miSouth (190°)4.6 mphClear
7:53 AM82.0 °F75.9 °F82 %30.00 in10.0 miSSW (200°)6.9 mphPartly Cloudy
8:14 AM82.9 °F75.9 °F79 %30.00 in10.0 miSouth (190°)9.2 mphMostly Cloudy
8:25 AM82.9 °F75.9 °F79 %30.00 in10.0 miSSW (200°)10.4 mphOvercast
8:46 AM82.9 °F75.9 °F79 %30.00 in10.0 miSSW (200°)10.4 mphScattered Clouds
8:53 AM84.9 °F75.9 °F74 %30.00 in10.0 miSouth (190°)8.1 mphScattered Clouds
9:53 AM87.1 °F73.9 °F65 %30.00 in10.0 miSW (220°)10.4 mphScattered Clouds
10:53 AM89.1 °F73.0 °F59 %29.99 in10.0 miSSW (210°)9.2 mphClear
11:53 AM90.0 °F73.9 °F59 %29.99 in10.0 miSouth (190°)12.7 mph20.7 mphPartly Cloudy
12:53 PM91.0 °F73.9 °F57 %30.00 in10.0 miSouth (190°)11.5 mph19.6 mphPartly Cloudy
1:53 PM90.0 °F73.0 °F57 %30.00 in10.0 miSSW (210°)15.0 mph23.0 mphMostly Cloudy
2:53 PM91.0 °F73.0 °F55 %30.00 in10.0 miSouth (180°)11.5 mphScattered Clouds
3:53 PM89.1 °F73.0 °F59 %29.99 in10.0 miSSW (200°)13.8 mph20.7 mphScattered Clouds
4:53 PM89.6 °F71.6 °F55 %29.98 in10.0 miSSW (200°)11.5 mphPartly Cloudy
5:53 PM89.1 °F72.0 °F57 %29.98 in10.0 miSSW (210°)9.2 mphPartly Cloudy
6:53 PM88.0 °F71.1 °F57 %29.98 in10.0 miSSW (200°)10.4 mphClear
7:53 PM84.9 °F75.0 °F72 %29.99 in10.0 miSSE (160°)12.7 mphClear
8:53 PM82.0 °F75.9 °F82 %29.99 in10.0 miSSE (160°)8.1 mphPartly Cloudy
9:50 PM82.4 °F75.2 °F79 %30.01 in10.0 miSSE (160°)6.9 mphMostly Cloudy
9:53 PM82.0 °F75.9 °F82 %30.01 in10.0 miSouth (170°)8.1 mphOvercast
10:33 PM81.0 °F75.9 °F85 %30.01 in10.0 miSSE (160°)5.8 mphScattered Clouds
10:53 PM80.1 °F75.9 °F87 %30.01 in10.0 miSSE (150°)3.5 mphScattered Clouds
11:00 PM81.0 °F77.0 °F88 %30.01 in10.0 miSSE (160°)5.8 mphMostly Cloudy
11:22 PM81.0 °F77.0 °F88 %30.01 in10.0 miSSE (150°)5.8 mphScattered Clouds
11:53 PM80.1 °F75.9 °F87 %30.01 in10.0 miSSE (160°)4.6 mphClear
Hourly data recorded from KILM, located miles away from Wilmington, North Carolina







STORIES FROM OUR PARTNERS